Location: Unspecified
(0.0000°N, 0.0000°E)
Time: 11:50:12
(UTC+00:00)

Vanguard 2 - Pass Details

Date: 11 December 2017
Orbit: 554 x 2939 km, 32.9° (Epoch: 24 June)

Event Time Altitude Azimuth Distance (km) Brightness Sun altitude
Rises 07:28:03 0° 223° (SW) 6,528 12.1 21.7°
Reaches altitude 10° 07:34:40 10° 207° (SSW) 5,712 12.0 23.2°
Maximum altitude 07:45:50 19° 167° (SSE) 4,977 12.4 25.7°
Drops below altitude 10° 07:56:20 10° 128° (SE) 5,375 13.4 28.1°
Sets 08:02:08 0° 111° (ESE) 6,041 13.3 29.4°
